Location: Ariel
(45.9570°N, 122.5700°W)
Time: 14:47:42
(UTC-07:00)

Vanguard 3 - Pass Details

Date: 03 September 2019
Orbit: 508 x 3263 km, 33.4° (Epoch: 14 September)

Event Time Altitude Azimuth Distance (km) Brightness Sun altitude
Rises 16:00:12 0° 251° (WSW) 6,768 12.8 36.8°
Reaches altitude 10° 16:05:31 10° 246° (WSW) 5,409 12.7 36.0°
Maximum altitude 16:18:52 42° 184° (S) 2,439 10.4 34.0°
Drops below altitude 10° 16:26:52 10° 116° (ESE) 3,276 10.0 32.8°
Sets 16:29:17 0° 109° (ESE) 3,952 10.3 32.4°
